Location: Asheville, NC
(35.6000°N, 82.5500°W)
Time: 00:29:07
(UTC-04:00)

AAUSAT CUBESAT 2 - Pass Details

Date: 14 March 2018
Orbit: 576 x 592 km, 97.5° (Epoch: 24 June)

Event Time Altitude Azimuth Distance (km) Brightness Sun altitude
Rises 20:15:25 0° 158° (SSE) 2,781 ? -8.6°
Reaches altitude 10° 20:17:34 10° 154° (SSE) 1,888 ? -9.1°
Maximum altitude 20:21:36 58° 76° (ENE) 680 ? -9.9°
Drops below altitude 10° 20:25:40 10° 357° (N) 1,911 ? -10.7°
Sets 20:27:51 0° 353° (N) 2,818 ? -11.2°
